Location: Bothwell
(42.3833°S, 147.0000°E)
Time: 21:20:55
(UTC+11:00)

MOZHAYETS 4 - Pass Details

Date: 28 September 2022
Orbit: 659 x 678 km, 98.2° (Epoch: 25 November)

Event Time Altitude Azimuth Distance (km) Brightness Sun altitude
Rises 03:39:28 0° 168° (SSE) 3,038 11.6 -24.3°
Reaches altitude 10° 03:41:43 10° 169° (SSE) 2,119 10.8 -23.9°
Maximum altitude 03:46:21 82° 255° (WSW) 687 7.6 -23.1°
Enters shadow 03:47:00 65° 328° (NNW) 742 7.6 -23.0°
